Location: Highridge
(54.0333°N, 114.1333°W)
Time: 14:02:20
(UTC+00:00)

Oscar 19 - Pass Details

Date: 08 December 2023
Orbit: 771 x 789 km, 98.9° (Epoch: 01 March)

Event Time Altitude Azimuth Distance (km) Brightness Sun altitude
Rises 13:40:40 0° 12° (NNE) 3,275 13.8 -16.5°
Reaches altitude 10° 13:43:08 10° 4° (N) 2,346 13.0 -16.1°
Maximum altitude 13:47:48 36° 299° (WNW) 1,230 11.1 -15.5°
Drops below altitude 10° 13:52:29 10° 235° (SW) 2,343 12.8 -14.8°
Sets 13:54:57 0° 227° (SW) 3,270 13.6 -14.5°
